Greensboro, NC

7:03 AM EDT on October 01, 2016 (GMT -0400)
Piedmont Triad International

Weather History for KGSO - November, 2010

Change the Weather History Date:

Monday, November 29, 2010

  Actual Average Record
Temperature  
Mean Temperature 37 °F 46 °F  
Max Temperature 47 °F 56 °F 78 °F (1909)
Min Temperature 26 °F 36 °F 16 °F (1955)
Degree Days  
Heating Degree Days 28 19  
Month to date heating degree days 438 427  
Since 1 July heating degree days 565 660  
Cooling Degree Days 0 0  
Month to date cooling degree days 0 0  
Year to date cooling degree days 2013 1480  
Moisture  
Dew Point 28 °F    
Average Humidity 64    
Maximum Humidity 78    
Minimum Humidity 49    
Precipitation  
Precipitation T in 0.11 in 0.98 in (1963)
Month to date precipitation 0.72 3.01  
Year to date precipitation 40.43 39.12  
Snow  
Snow 0.00 in 0.00 in T in (1967)
Month to date snowfall 0.0 0.1  
Since 1 July snowfall 0.0 0.1  
Since 1 September snowfall 0.0 0.1  
Snow Depth 0.00 in    
Sea Level Pressure  
Sea Level Pressure 30.41 in    
Wind  
Wind Speed 4 mph (NE)    
Max Wind Speed 13 mph    
Max Gust Speed 15 mph    
Visibility 10 miles    
Events Rain    
T = Trace of Precipitation, MM = Missing Value Source: NWS Daily Summary

Daily Weather History Graph

Daily Weather History Graph

Search for Another Location

Airport or City:

Trip Planner

Search our weather history database for the weather conditions in past years. The results will help you decide how hot, cold, wet, or windy it might be!

Date:

Astronomy

Nov. 29, 2010 Rise Set
Actual Time 7:10 AM EST 5:05 PM EST
Civil Twilight 6:42 AM EST 5:33 PM EST
Nautical Twilight 6:10 AM EST 6:05 PM EST
Astronomical Twilight 5:39 AM EST 6:36 PM EST
Moon 12:26 AM EST (11/29) 12:56 PM EST (11/29)
Length of Visible Light 10h 51m
Length of Day
9h 55m
Last Quarter, 40% of the Moon is Illuminated
Nov 29
Last Quarter
Dec 5
New
Dec 13
First Quarter
Dec 21
Full
Dec 27
Last Quarter

Hourly Weather History & Observations

Time (EST) Temp. Windchill Dew Point Humidity Pressure Visibility Wind Dir Wind Speed Gust Speed Precip Events Conditions
12:54 AM 32.0 °F - 23.0 °F 69% 30.40 in 10.0 mi Calm Calm - N/A   Clear
1:54 AM 30.9 °F - 23.0 °F 72% 30.40 in 10.0 mi Calm Calm - N/A   Clear
2:54 AM 30.0 °F 26.5 °F 23.0 °F 75% 30.42 in 10.0 mi ENE 3.5 mph - N/A   Clear
3:54 AM 28.0 °F 24.2 °F 23.0 °F 81% 30.42 in 10.0 mi NE 3.5 mph - N/A   Clear
4:54 AM 28.0 °F - 23.0 °F 81% 30.43 in 10.0 mi Calm Calm - N/A   Clear
5:54 AM 28.9 °F 25.2 °F 23.0 °F 78% 30.44 in 10.0 mi NNE 3.5 mph - N/A   Scattered Clouds
6:54 AM 28.9 °F - 23.0 °F 78% 30.46 in 10.0 mi Calm Calm - N/A   Partly Cloudy
7:54 AM 32.0 °F 28.7 °F 25.0 °F 75% 30.48 in 10.0 mi NNE 3.5 mph - N/A   Mostly Cloudy
8:54 AM 34.0 °F - 27.0 °F 75% 30.50 in 10.0 mi Calm Calm - N/A   Mostly Cloudy
9:54 AM 37.0 °F - 28.0 °F 70% 30.51 in 10.0 mi Calm Calm - N/A   Mostly Cloudy
10:54 AM 41.0 °F 38.0 °F 30.9 °F 67% 30.50 in 10.0 mi ENE 4.6 mph - N/A   Mostly Cloudy
11:54 AM 44.1 °F 41.5 °F 30.0 °F 58% 30.48 in 10.0 mi NE 4.6 mph - N/A   Overcast
12:54 PM 46.0 °F 41.9 °F 30.0 °F 54% 30.43 in 10.0 mi ENE 8.1 mph - N/A   Overcast
1:54 PM 46.0 °F 44.8 °F 30.0 °F 54% 30.43 in 10.0 mi NNE 3.5 mph - N/A   Overcast
2:40 PM 46.4 °F 41.9 °F 30.2 °F 53% 30.38 in 10.0 mi ENE 9.2 mph - N/A   Overcast
2:54 PM 46.9 °F - 30.9 °F 54% 30.39 in 10.0 mi ENE 9.2 mph - N/A   Overcast
3:54 PM 46.9 °F - 28.9 °F 50% 30.40 in 10.0 mi NE 6.9 mph - N/A   Overcast
4:54 PM 46.0 °F 41.9 °F 30.0 °F 54% 30.39 in 10.0 mi ENE 8.1 mph - N/A   Overcast
5:54 PM 46.0 °F 43.9 °F 30.0 °F 54% 30.39 in 10.0 mi ENE 4.6 mph - N/A   Mostly Cloudy
6:54 PM 46.0 °F 43.1 °F 30.9 °F 56% 30.37 in 10.0 mi NE 5.8 mph - N/A   Overcast
7:54 PM 46.0 °F 44.8 °F 30.9 °F 56% 30.37 in 10.0 mi NNE 3.5 mph - N/A   Overcast
8:19 PM 44.6 °F 42.2 °F 30.2 °F 57% 30.36 in 10.0 mi North 4.6 mph - N/A   Mostly Cloudy
8:54 PM 45.0 °F 43.5 °F 30.9 °F 58% 30.36 in 10.0 mi NNE 3.5 mph - N/A   Mostly Cloudy
9:54 PM 45.0 °F 41.8 °F 30.9 °F 58% 30.35 in 10.0 mi NE 5.8 mph - N/A   Mostly Cloudy
10:17 PM 44.6 °F 41.4 °F 30.2 °F 57% 30.33 in 10.0 mi NE 5.8 mph - N/A   Overcast
10:54 PM 45.0 °F 41.8 °F 30.9 °F 58% 30.34 in 10.0 mi NNE 5.8 mph - N/A   Mostly Cloudy
11:54 PM 45.0 °F 40.6 °F 32.0 °F 60% 30.31 in 10.0 mi NE 8.1 mph - 0.00 in Rain Light Rain